sat.trackr.live / text

‹ back to catalog

STARLINK-31740

NORAD 59433 · 2024-065N

PAYLOAD ACTIVE UNKNOWN

§ Identity

Operator
Country
US
Launch date
2024-04-07
Launch site
AFWTR
Launch vehicle
Mass (kg)
RCS (m²)

Purposes: comms

External: N2YO · Heavens-Above · Gunter

§ Orbital elements

Epoch: 2026-09-21T18:52:27.523488Z

Period
93.85 min
Inclination
53.1593°
Eccentricity
0.0001140
Mean motion
15.34388387 rev/d
Perigee alt
462.0 km
Apogee alt
463.5 km
Semi-major
6,840.9 km
B*
3.2363e-5
RAAN
91.4753°
Arg perigee
96.0658°
Mean anomaly
264.0474°
Rev number
13,894

§ Raw data

STARLINK-317401 59433U 24065N   26264.78642967  .00000717  00000+0  32363-4 0  99952 59433  53.1593  91.4753 0001140  96.0658 264.0474 15.34388387138943

JSON: /api/v1/satellites/59433 · /tle

For live sub-satellite position, see the globe view (requires WebGL).

§ Visibility from observer

Set your observer location to see the next 7 days of passes ≥ 10°. The values pass through the URL so the page stays shareable.

No JS? Fill the form by hand. The geolocation button needs JavaScript.